SCP
0 0 0 0 0 0 0 0 0 0 0 0 0 0 0 0 0 0 0 0 0 0 0 0 0 0 0 0 0 0 0 0 0 0 0 0 0 0 0 0 0 0 0
0 0 0 0 0 0 0 0 0 0 0 0 0 0 0 0 0 0 0 0 0 0 0 0 0 0 0 0 0 0 0 0 0 0 0 0 0 0 0 0 0 0 0
0 0 0 0 0 0 0 0 0 0 0 0 0 0 0 0 0 0 0 0 0 0 0 0 0 0 0 0 0 0 0 0 0 0 0 0 0 0 0 0 0 0 0
0 0 0 0 0 0 0 0 0 0 0 0 0 0 0 0 0 0 0 0 0 0 0 0 0 0 0 0 0 0 0 0 0 0 0 0 0 0 0 0 0 0 0
0 0 0 0 0 0 0 0 0 0 0 0 0 0 0 0 0 0 0 0 0 0 0 0 0 0 0 0 0 0 0 0 0 0 0 0 0 0 0 0 0 0 0
0 0 0 0 0 0 0 0 0 0 0 0 0 0 0 0 0 0 0 0 0 0 0 0 0 0 0 0 0 0 0 0 0 0 0 0 0 0 0 0 0 0 0
0 0 0 0 0 0 0 0 0 0 0 0 0 0 0 0 0 0 0 0 0 0 0 0 0 0 0 0 0 0 0 0 0 0 0 0 0 0 0 0 0 0 0
0 0 0 0 0 0 0 0 0 0 0 0 0 0 0 0 0 0 0 0 0 0 0 0 0 0 0 0 0 0 0 0 0 0 0 0 0 0 0 0 0 0 0
0 0 0 0 0 0 0 0 0 0 0 0 0 0 0 0 0 0 0 0 0 0 0 0 0 0 0 0 0 0 0 0 0 0 0 0 0 0 0 0 0 0 0
0 0 0 0 0 0 0 0 0 0 0 0 0 0 0 0 0 0 0 0 0 0 0 0 0 0 0 0 0 0 0 0 0 0 0 0 0 0 0 0 0 0 0
0 0 0 0 0 0 0 0 0 0 0 0 0 0 0 0 0 0 0 0 0 0 0 0 0 0 0 0 0 0 0 0 0 0 0 0 0 0 0 0 0 0 0
0 0 0 0 0 0 0 0 0 0 0 0 0 0 0 0 0 0 0 0 0 0 0 0 0 0 0 0 0 0 0 0 0 0 0 0 0 0 0 0 0 0 0
0 0 0 0 0 0 0 0 0 0 0 0 0 0 0 0 0 0 0 0 0 0 0 0 0 0 0 0 0 0 0 0 0 0 0 0 0 0 0 0 0 0 0
0 0 0 0 0 0 0 0 0 0 0 0 0 0 0 0 0 0 0 0 0 0 0 0 0 0 0 0 0 0 0 0 0 0 0 0 0 0 0 0 0 0 0
0 0 0 0 0 0 0 0 0 0 0 0 0 0 0 0 0 0 0 0 0 0 0 0 0 0 0 0 0 0 0 0 0 0 0 0 0 0 0 0 0 0 0
0 0 0 0 0 0 0 0 0 0 0 0 0 0 0 0 0 0 0 0 0 0 0 0 0 0 0 0 0 0 0 0 0 0 0 0 0 0 0 0 0 0 0
0 0 0 0 0 0 0 0 0 0 0 0 0 0 0 0 0 0 0 0 0 0 0 0 0 0 0 0 0 0 0 0 0 0 0 0 0 0 0 0 0 0 0
0 0 0 0 0 0 0 0 0 0 0 0 0 0 0 0 0 0 0 0 0 0 0 0 0 0 0 0 0 0 0 0 0 0 0 0 0 0 0 0 0 0 0
0 0 0 0 0 0 0 0 0 0 0 0 0 0 0 0 0 0 0 0 0 0 0 0 0 0 0 0 0 0 0 0 0 0 0 0 0 0 0 0 0 0 0
0 0 0 0 0 0 0 0 0 0 0 0 0 0 0 0 0 0 0 0 0 0 0 0 0 0 0 0 0 0 0 0 0 0 0 0 0 0 0 0 0 0 0
0 0 0 0 0 0 0 0 0 0 0 0 0 0 0 0 0 0 0 0 0 0 0 0 0 0 0 0 0 0 0 0 0 0 0 0 0 0 0 0 0 0 0
0 0 0 0 0 0 0 0 0 0 0 0 0 0 0 0 0 0 0 0 0 0 0 0 0 0 0 0 0 0 0 0 0 0 0 0 0 0 0 0 0 0 0
0 0 0 0 0 0 0 0 0 0 0 0 0 0 0 0 0 0 0 0 0 0 0 0 0 0 0 0 0 0 0 0 0 0 0 0 0 0 0 0 0 0 0
0 0 0 0 0 0 0 0 0 0 0 0 0 0 0 0 0 0 0 0 0 0 0 0 0 0 0 0 0 0 0 0 0 0 0 0 0 0 0 0 0 0 0
0 0 0 0 0 0 0 0 0 0 0 0 0 0 0 0 0 0 0 0 0 0 0 0 0 0 0 0 0 0 0 0 0 0 0 0 0 0 0 0 0 0 0
0 0 0 0 0 0 0 0 0 0 0 0 0 0 0 0 0 0 0 0 0 0 0 0 0 0 0 0 0 0 0 0 0 0 0 0 0 0 0 0 0 0 0
Wind_Speed
7 7 6 5 6 5 5 5 5 5 5 4 4 4 4 4 4 3 2 4 5 7 8 8 8 7 7 7 7 7 7 7 8 7 7 6 6 5 4 3 2 1 1
7 6 6 6 5 5 4 5 5 4 4 4 4 4 4 4 4 4 4 3 6 6 7 8 8 8 8 7 7 6 6 7 8 8 8 8 7 7 6 5 5 4 2
8 6 6 6 5 5 6 4 5 4 3 3 4 4 4 5 4 5 4 4 3 5 6 7 8 8 8 7 6 5 4 5 6 7 8 8 8 8 8 7 6 6 5
8 7 5 6 6 5 5 5 4 4 4 4 4 3 3 3 5 5 5 4 4 3 4 4 6 7 6 5 4 3 3 3 4 5 6 8 9 10 9 9 8 8 7
9 7 6 5 6 5 5 5 5 4 4 4 3 3 4 4 4 4 5 4 3 3 3 1 2 3 4 3 3 3 2 3 3 4 5 6 8 9 10 10 10 9 9
9 8 6 7 7 6 5 6 6 5 4 3 3 4 4 3 3 3 3 2 2 2 3 2 1 1 1 1 1 1 2 2 3 3 4 5 6 8 9 9 10 10 10
9 8 6 7 7 7 7 8 6 6 5 3 3 4 4 3 2 1 1 1 1 1 2 2 2 1 1 2 1 1 1 2 2 3 3 4 5 6 6 7 8 9 10
9 7 8 7 7 6 8 7 7 5 4 4 4 3 3 4 3 1 1 0 0 1 2 2 2 2 2 1 3 2 2 2 2 2 2 2 3 4 5 6 7 8 8
8 8 8 8 7 7 6 7 7 8 5 4 4 4 3 3 1 3 2 1 1 0 0 1 2 2 2 2 1 2 3 3 3 2 2 1 2 3 4 5 5 6 7
8 8 8 8 7 6 6 7 7 6 6 4 4 4 4 3 3 2 3 3 2 1 1 1 1 2 2 2 2 4 4 4 3 2 2 2 3 4 4 5 5 6 6
6 7 7 7 7 6 6 6 6 6 5 5 4 4 4 4 5 5 4 3 3 2 1 1 1 1 2 2 2 4 5 4 3 3 3 4 5 5 6 6 6 6 6
4 6 6 6 6 6 6 6 6 7 5 5 4 4 4 4 4 5 6 5 4 2 2 1 1 1 1 1 2 5 5 4 4 4 4 4 5 6 7 7 7 7 7
5 7 7 6 6 6 6 6 6 6 6 7 5 4 4 4 2 4 5 4 4 3 3 2 1 1 0 1 1 4 3 4 5 5 5 6 7 7 7 7 7 7 7
5 6 7 7 7 6 6 6 5 5 5 6 6 5 4 3 3 4 4 4 4 4 4 4 2 1 1 0 2 3 2 4 5 5 6 6 7 7 8 7 7 7 8
5 7 7 7 7 7 7 7 5 6 6 5 5 5 4 3 3 3 3 4 4 4 4 3 2 2 1 0 1 1 1 4 5 5 5 6 6 7 8 8 8 8 9
6 8 8 7 7 7 7 7 6 6 6 5 4 5 4 3 3 3 3 3 4 4 4 1 2 2 2 1 1 1 2 3 4 4 5 5 6 7 8 8 9 9 9
7 8 8 8 8 8 7 7 6 7 6 6 5 5 5 4 3 3 3 3 4 4 5 2 1 1 2 2 2 1 1 1 2 4 4 5 6 6 7 8 9 9 9
7 7 7 8 7 7 7 7 7 7 7 6 6 5 5 4 5 3 3 4 3 4 4 4 2 2 2 2 2 1 1 1 2 4 4 4 5 6 7 8 9 9 9
6 7 7 7 8 7 7 6 6 6 6 5 5 6 5 5 5 4 4 3 3 3 3 3 2 1 1 2 2 1 1 0 1 2 3 3 4 5 6 7 8 9 9
7 7 7 7 7 7 7 6 6 6 5 5 5 4 4 5 5 5 4 4 3 3 3 3 2 2 2 2 2 2 2 2 1 1 1 2 3 4 6 7 7 8 8
6 6 7 7 7 6 6 7 6 6 6 6 5 4 4 3 3 3 3 3 3 3 3 3 3 2 3 3 3 3 2 2 1 0 1 0 0 1 2 4 5 6 6
6 6 7 7 7 5 7 9 7 6 6 6 5 5 4 5 5 5 4 2 2 3 4 3 3 4 4 4 3 3 2 2 2 2 2 1 1 0 1 2 5 5 5
6 6 6 7 7 7 10 11 9 6 6 6 6 5 4 4 5 5 5 4 2 1 2 4 4 4 4 4 4 4 3 3 1 2 1 2 2 1 1 2 4 4 5
6 6 6 7 7 8 11 12 11 7 5 6 6 6 6 6 6 6 5 4 3 2 1 3 3 2 2 2 3 3 3 2 2 1 2 2 2 1 1 1 4 4 4
6 6 6 7 7 8 11 12 11 6 5 6 6 6 7 7 9 9 6 5 4 3 2 1 1 2 2 2 3 3 4 3 2 3 2 2 2 1 2 2 1 4 3
6 6 6 7 8 7 11 13 13 6 6 6 6 6 8 8 10 11 7 7 6 5 4 4 4 4 4 4 3 2 3 3 2 2 3 2 2 2 2 2 1 1 1
Wind_Direction
173 169 172 173 179 177 182 190 197 191 200 203 213 232 237 241 252 257 232 206 256 274 277 274 270 267 261 255 244 237 235 230 227 229 232 235 239 245 251 256 263 283 349
174 175 175 178 180 184 189 196 199 200 207 216 225 237 252 258 261 267 278 238 225 252 269 270 270 271 270 261 255 249 237 228 227 229 232 237 240 240 240 243 242 241 242
181 181 183 183 184 186 189 198 197 211 216 223 233 241 255 265 272 274 278 286 267 230 243 264 271 272 272 265 259 247 233 226 230 234 237 238 238 238 238 237 237 235 230
188 188 190 193 189 188 194 198 202 207 212 225 236 239 252 263 272 283 283 279 284 284 245 243 271 274 271 266 256 239 227 216 225 241 246 246 243 240 239 238 237 236 231
194 198 200 197 192 195 199 200 210 214 216 224 242 256 262 266 275 279 282 292 294 292 292 223 242 271 276 269 254 243 231 220 227 246 254 255 252 246 242 239 238 237 234
198 203 203 203 196 198 202 204 206 211 226 231 242 256 262 267 271 281 294 298 314 318 308 311 253 127 98 325 271 248 241 237 235 251 259 263 262 254 249 243 240 238 236
199 203 205 206 203 207 206 207 205 209 214 220 237 246 239 234 244 246 290 308 44 25 12 2 355 344 87 92 48 353 291 270 264 258 257 259 266 265 259 252 248 242 239
200 203 208 209 207 210 209 207 204 208 206 205 228 246 246 205 179 185 158 92 61 75 52 23 18 6 346 331 64 30 346 314 283 269 256 269 279 284 272 264 257 249 246
201 202 207 211 210 209 207 206 208 214 206 197 224 244 249 252 233 190 179 201 181 137 51 17 3 358 348 336 342 37 0 337 305 289 292 291 305 306 303 290 273 261 252
201 201 203 206 204 206 210 209 210 215 211 200 200 231 257 277 252 244 193 194 205 257 299 333 325 338 342 343 4 8 355 341 318 316 331 346 335 324 310 311 304 284 267
200 197 197 197 200 203 206 201 197 204 211 209 201 197 213 227 239 252 256 236 229 226 254 295 301 317 349 351 351 16 5 350 341 344 354 360 356 349 342 334 325 321 307
195 198 194 195 195 193 194 194 192 197 202 203 202 206 211 215 213 227 248 258 263 242 228 249 266 305 354 351 25 21 18 19 18 18 18 18 15 4 351 339 335 329 319
196 195 189 193 192 189 183 181 184 189 193 194 196 203 216 231 236 238 250 258 262 261 235 221 207 213 303 322 36 12 33 36 29 22 24 32 25 11 360 348 346 343 333
196 187 185 186 182 175 174 174 178 183 188 191 192 195 200 205 213 224 237 247 254 249 235 226 170 178 159 34 40 345 55 55 45 37 39 38 27 17 8 359 357 352 346
176 177 176 177 177 173 172 169 176 179 181 183 184 192 197 192 199 219 231 236 243 256 249 206 181 157 161 133 53 355 39 63 58 54 50 42 34 25 17 11 10 6 0
171 170 172 172 170 169 169 168 169 175 176 174 176 188 193 191 191 207 219 229 237 251 260 207 184 154 161 167 94 50 61 71 69 62 52 47 42 32 22 18 17 13 8
171 172 171 166 167 167 168 169 172 170 175 174 179 191 193 191 196 199 208 219 226 235 251 248 184 177 196 193 164 118 72 47 64 67 64 51 46 38 27 22 20 17 12
166 167 165 163 164 166 170 172 169 175 179 180 182 188 191 186 195 197 206 218 225 232 247 250 207 196 213 199 176 150 93 54 49 65 63 51 44 38 30 25 22 21 18
160 162 163 163 163 165 167 170 170 174 179 182 184 190 191 193 197 197 204 212 215 222 236 245 217 190 198 182 173 167 164 127 60 47 50 44 42 39 34 29 26 25 24
165 165 166 164 163 163 164 165 167 169 171 174 180 188 193 200 203 197 201 211 211 217 220 227 213 200 201 184 194 195 198 190 171 32 49 37 41 46 38 34 29 25 28
168 166 163 163 165 167 170 169 169 172 174 175 179 184 187 188 196 196 202 206 208 218 218 218 214 202 201 196 205 192 201 178 178 217 243 35 347 30 36 30 27 24 29
171 170 172 171 172 176 172 176 175 177 180 183 181 180 175 180 181 181 185 200 228 234 226 218 220 220 216 209 189 184 176 189 202 170 220 179 229 165 30 17 18 22 34
180 182 183 183 185 181 180 183 185 180 181 182 181 182 182 180 178 172 160 156 163 210 264 249 239 232 219 198 185 187 191 210 195 119 215 186 183 187 86 22 17 32 41
191 192 193 194 194 188 188 187 181 184 184 185 188 192 192 187 185 183 179 179 180 175 219 244 254 250 237 190 190 189 171 153 125 143 235 216 180 184 145 94 34 34 48
202 201 197 197 199 196 194 191 183 184 189 193 195 201 200 197 187 188 186 187 191 176 136 121 82 98 120 144 159 152 159 178 192 171 187 223 176 183 188 176 71 29 45
210 204 204 204 204 204 199 197 191 193 195 194 196 201 208 207 193 193 197 196 203 190 173 159 147 134 138 141 160 198 187 195 197 184 170 197 173 177 192 174 183 200 138